FFL610 KDCA-KTEB

Flight info

Callsign FFL610
Flight time 0h 40m
Altitude 29000
Route SOOKI6 SWANN JAIKE4
Aircraft CL60/M-SBDE1E2E3FGHIJ1J4J5J7M3RWXYZ/LB1V1D1

Departure

Time 2026-04-26 23:43
Airport Ronald Reagan Washington National Airport (KDCA)

Arrival

Time 2026-04-27 00:24
Airport Teterboro Airport (KTEB)
Time Latitude Longitude Altitude Speed Heading
2026-04-26 23:24 38.84566 -77.04712 20 ft 0 kts 146°
2026-04-26 23:36 38.84563 -77.04710 20 ft 1 kts 146°
2026-04-26 23:37 38.84558 -77.04705 20 ft 0 kts 146°
2026-04-26 23:39 38.84553 -77.04700 19 ft 3 kts 145°
2026-04-26 23:39 38.84533 -77.04653 19 ft 8 kts 73°
2026-04-26 23:39 38.84570 -77.04577 20 ft 11 kts 59°
2026-04-26 23:40 38.84621 -77.04494 22 ft 12 kts 52°
2026-04-26 23:40 38.84635 -77.04409 21 ft 12 kts 136°
2026-04-26 23:40 38.84561 -77.04316 19 ft 14 kts 126°
2026-04-26 23:40 38.84558 -77.04238 18 ft 9 kts 58°
2026-04-26 23:41 38.84579 -77.04146 19 ft 11 kts 86°
2026-04-26 23:41 38.84585 -77.04038 18 ft 15 kts 142°
2026-04-26 23:41 38.84469 -77.04002 17 ft 19 kts 171°
2026-04-26 23:41 38.84334 -77.03937 14 ft 23 kts 119°
2026-04-26 23:42 38.84268 -77.03752 13 ft 11 kts 115°
2026-04-26 23:42 38.84281 -77.03687 13 ft 0 kts 351°
2026-04-26 23:42 38.84282 -77.03687 13 ft 0 kts 352°
2026-04-26 23:43 38.84301 -77.03690 13 ft 26 kts 355°
2026-04-26 23:43 38.84983 -77.03754 62 ft 157 kts 359°
2026-04-26 23:43 38.86197 -77.03888 1176 ft 192 kts 356°
2026-04-26 23:43 38.87401 -77.04343 2980 ft 198 kts 336°
2026-04-26 23:44 38.88447 -77.05350 4829 ft 197 kts 325°
2026-04-26 23:44 38.89423 -77.06417 6365 ft 192 kts 326°
2026-04-26 23:44 38.90292 -77.07701 7693 ft 201 kts 306°
2026-04-26 23:44 38.90943 -77.09226 9096 ft 201 kts 304°
2026-04-26 23:45 38.91620 -77.10674 10475 ft 194 kts 317°
2026-04-26 23:45 38.92667 -77.11768 11343 ft 214 kts 329°
2026-04-26 23:45 38.94059 -77.12916 11801 ft 256 kts 330°
2026-04-26 23:45 38.95653 -77.14059 12761 ft 273 kts 336°
2026-04-26 23:46 38.97472 -77.14750 13945 ft 279 kts 355°
2026-04-26 23:46 38.99370 -77.14465 15153 ft 286 kts 17°
2026-04-26 23:46 39.01093 -77.13151 16317 ft 295 kts 34°
2026-04-26 23:46 39.02689 -77.11457 17385 ft 304 kts 39°
2026-04-26 23:47 39.03986 -77.09300 18406 ft 318 kts 57°
2026-04-26 23:47 39.04658 -77.06539 19392 ft 333 kts 75°
2026-04-26 23:47 39.05031 -77.03591 20306 ft 340 kts 75°
2026-04-26 23:47 39.05420 -77.00543 20850 ft 350 kts 76°
2026-04-26 23:48 39.05812 -76.97463 21108 ft 351 kts 76°
2026-04-26 23:48 39.06219 -76.94277 21181 ft 374 kts 76°
2026-04-26 23:48 39.06665 -76.90818 21177 ft 402 kts 76°
2026-04-26 23:48 39.07121 -76.87231 21178 ft 415 kts 76°
2026-04-26 23:49 39.07584 -76.83546 21181 ft 415 kts 76°
2026-04-26 23:49 39.08044 -76.79868 21183 ft 412 kts 76°
2026-04-26 23:49 39.08496 -76.76252 21184 ft 411 kts 76°
2026-04-26 23:49 39.08966 -76.72639 21186 ft 410 kts 75°
2026-04-26 23:50 39.09476 -76.69022 21186 ft 410 kts 75°
2026-04-26 23:50 39.09987 -76.65399 21186 ft 410 kts 75°
2026-04-26 23:50 39.10491 -76.61812 21187 ft 411 kts 75°
2026-04-26 23:50 39.11002 -76.58171 21187 ft 411 kts 75°
2026-04-26 23:51 39.11507 -76.54565 21191 ft 412 kts 75°
2026-04-26 23:51 39.11973 -76.50919 21191 ft 413 kts 77°
2026-04-26 23:51 39.12389 -76.47263 21191 ft 413 kts 77°
2026-04-26 23:51 39.12804 -76.43611 21192 ft 413 kts 77°
2026-04-26 23:52 39.13219 -76.39949 21192 ft 413 kts 77°
2026-04-26 23:52 39.13628 -76.36324 21190 ft 413 kts 77°
2026-04-26 23:52 39.14046 -76.32626 21191 ft 424 kts 77°
2026-04-26 23:52 39.14487 -76.28758 21186 ft 449 kts 77°
2026-04-26 23:53 39.15258 -76.24821 21196 ft 457 kts 65°
2026-04-26 23:53 39.16804 -76.21285 21190 ft 452 kts 49°
2026-04-26 23:53 39.18980 -76.18381 21172 ft 445 kts 39°
2026-04-26 23:53 39.21278 -76.15706 21176 ft 443 kts 39°
2026-04-26 23:54 39.23536 -76.13061 21183 ft 443 kts 39°
2026-04-26 23:54 39.25844 -76.10356 21179 ft 444 kts 39°
2026-04-26 23:54 39.28193 -76.07835 21186 ft 442 kts 33°
2026-04-26 23:54 39.30681 -76.05499 21181 ft 442 kts 32°
2026-04-26 23:55 39.33177 -76.03162 21185 ft 442 kts 32°
2026-04-26 23:55 39.35685 -76.00808 21182 ft 442 kts 32°
2026-04-26 23:55 39.38168 -75.98476 21182 ft 441 kts 33°
2026-04-26 23:55 39.40643 -75.96147 21187 ft 441 kts 32°
2026-04-26 23:56 39.43130 -75.93806 21173 ft 441 kts 32°
2026-04-26 23:56 39.45652 -75.91431 20815 ft 446 kts 33°
2026-04-26 23:56 39.48101 -75.89117 20303 ft 432 kts 33°
2026-04-26 23:56 39.50502 -75.86845 19755 ft 414 kts 32°
2026-04-26 23:57 39.52784 -75.84686 19235 ft 411 kts 33°
2026-04-26 23:57 39.55094 -75.82503 18695 ft 411 kts 33°
2026-04-26 23:57 39.57426 -75.80297 18148 ft 409 kts 33°
2026-04-26 23:57 39.59710 -75.78167 17614 ft 406 kts 32°
2026-04-26 23:58 39.62027 -75.76045 17070 ft 402 kts 32°
2026-04-26 23:58 39.64290 -75.73970 16548 ft 398 kts 32°
2026-04-26 23:58 39.66455 -75.71976 16566 ft 356 kts 31°
2026-04-26 23:58 39.68219 -75.70331 17686 ft 278 kts 31°
2026-04-26 23:59 39.69698 -75.68952 17679 ft 253 kts 30°
2026-04-26 23:59 39.71131 -75.67642 16750 ft 264 kts 29°
2026-04-26 23:59 39.72744 -75.66185 15107 ft 305 kts 30°
2026-04-26 23:59 39.74534 -75.64556 14247 ft 328 kts 31°
2026-04-27 00:00 39.76453 -75.62802 13651 ft 346 kts 31°
2026-04-27 00:00 39.78434 -75.60981 13193 ft 345 kts 31°
2026-04-27 00:00 39.80358 -75.59203 13043 ft 340 kts 31°
2026-04-27 00:00 39.82300 -75.57412 13011 ft 339 kts 31°
2026-04-27 00:01 39.84203 -75.55656 13015 ft 339 kts 31°
2026-04-27 00:01 39.86135 -75.53870 13017 ft 339 kts 31°
2026-04-27 00:01 39.88073 -75.52079 13015 ft 340 kts 31°
2026-04-27 00:01 39.89999 -75.50298 13021 ft 340 kts 31°
2026-04-27 00:02 39.91934 -75.48505 13017 ft 340 kts 31°
2026-04-27 00:02 39.93865 -75.46716 13018 ft 340 kts 31°
2026-04-27 00:02 39.95773 -75.44947 13023 ft 340 kts 31°
2026-04-27 00:02 39.97721 -75.43140 13014 ft 341 kts 31°
2026-04-27 00:03 39.99654 -75.41345 13018 ft 341 kts 31°
2026-04-27 00:03 40.01582 -75.39554 13018 ft 341 kts 31°
2026-04-27 00:03 40.03521 -75.37750 13018 ft 342 kts 31°
2026-04-27 00:03 40.05463 -75.35942 13018 ft 342 kts 31°
2026-04-27 00:04 40.07413 -75.34127 13019 ft 342 kts 32°
2026-04-27 00:04 40.09333 -75.32337 13017 ft 342 kts 31°
2026-04-27 00:04 40.11283 -75.30519 13024 ft 342 kts 32°
2026-04-27 00:04 40.13228 -75.28703 13014 ft 343 kts 31°
2026-04-27 00:05 40.15168 -75.26893 12844 ft 345 kts 31°
2026-04-27 00:05 40.17111 -75.25082 12500 ft 341 kts 31°
2026-04-27 00:05 40.19045 -75.23275 12140 ft 338 kts 32°
2026-04-27 00:05 40.20943 -75.21503 11778 ft 335 kts 32°
2026-04-27 00:06 40.22844 -75.19727 11416 ft 333 kts 32°
2026-04-27 00:06 40.24720 -75.17973 11057 ft 331 kts 32°
2026-04-27 00:06 40.26584 -75.16228 10690 ft 329 kts 32°
2026-04-27 00:06 40.28437 -75.14492 10252 ft 327 kts 32°
2026-04-27 00:07 40.30277 -75.12767 9752 ft 324 kts 33°
2026-04-27 00:07 40.32082 -75.11039 9307 ft 320 kts 36°
2026-04-27 00:07 40.33672 -75.08984 8875 ft 321 kts 44°
2026-04-27 00:07 40.35177 -75.06850 8445 ft 316 kts 44°
2026-04-27 00:08 40.36639 -75.04782 8035 ft 302 kts 45°
2026-04-27 00:08 40.38029 -75.02817 7639 ft 290 kts 45°
2026-04-27 00:08 40.39391 -75.00892 7251 ft 280 kts 45°
2026-04-27 00:08 40.40679 -74.99072 7024 ft 265 kts 46°
2026-04-27 00:09 40.41900 -74.97347 7003 ft 251 kts 45°
2026-04-27 00:09 40.43094 -74.95664 6995 ft 253 kts 46°
2026-04-27 00:09 40.44293 -74.93972 6995 ft 254 kts 45°
2026-04-27 00:09 40.45508 -74.92258 6996 ft 254 kts 46°
2026-04-27 00:10 40.46704 -74.90569 6990 ft 254 kts 46°
2026-04-27 00:10 40.47916 -74.88858 6993 ft 253 kts 45°
2026-04-27 00:10 40.49104 -74.87178 6974 ft 251 kts 45°
2026-04-27 00:10 40.50291 -74.85500 6977 ft 252 kts 45°
2026-04-27 00:11 40.51494 -74.83798 6998 ft 252 kts 45°
2026-04-27 00:11 40.52685 -74.82114 6994 ft 251 kts 45°
2026-04-27 00:11 40.53883 -74.80417 6986 ft 251 kts 45°
2026-04-27 00:11 40.55072 -74.78734 6989 ft 251 kts 45°
2026-04-27 00:12 40.56262 -74.77047 6987 ft 252 kts 45°
2026-04-27 00:12 40.57449 -74.75365 6998 ft 253 kts 45°
2026-04-27 00:12 40.58640 -74.73653 6996 ft 253 kts 46°
2026-04-27 00:12 40.59797 -74.71904 6994 ft 253 kts 47°
2026-04-27 00:13 40.60950 -74.70152 6992 ft 252 kts 47°
2026-04-27 00:13 40.62109 -74.68391 6993 ft 252 kts 47°
2026-04-27 00:13 40.63251 -74.66656 6999 ft 253 kts 47°
2026-04-27 00:13 40.64392 -74.64863 6996 ft 252 kts 53°
2026-04-27 00:14 40.65034 -74.62703 6999 ft 259 kts 73°
2026-04-27 00:14 40.65416 -74.60372 6811 ft 259 kts 73°
2026-04-27 00:14 40.65796 -74.58089 6493 ft 251 kts 73°
2026-04-27 00:14 40.66165 -74.55877 6182 ft 244 kts 73°
2026-04-27 00:15 40.66527 -74.53712 5865 ft 238 kts 74°
2026-04-27 00:15 40.66882 -74.51589 5545 ft 232 kts 74°
2026-04-27 00:15 40.67225 -74.49542 5229 ft 227 kts 74°
2026-04-27 00:15 40.67564 -74.47528 4910 ft 223 kts 74°
2026-04-27 00:16 40.67895 -74.45553 4589 ft 219 kts 74°
2026-04-27 00:16 40.68223 -74.43602 4268 ft 216 kts 75°
2026-04-27 00:16 40.68544 -74.41690 3946 ft 213 kts 75°
2026-04-27 00:16 40.68863 -74.39796 3623 ft 211 kts 75°
2026-04-27 00:17 40.69175 -74.37936 3303 ft 209 kts 75°
2026-04-27 00:17 40.69489 -74.36063 3047 ft 203 kts 76°
2026-04-27 00:17 40.69780 -74.34325 3030 ft 193 kts 76°
2026-04-27 00:17 40.70075 -74.32575 3017 ft 198 kts 76°
2026-04-27 00:18 40.70377 -74.30779 2890 ft 199 kts 77°
2026-04-27 00:18 40.70675 -74.28999 2594 ft 194 kts 77°
2026-04-27 00:18 40.71021 -74.27386 2520 ft 179 kts 67°
2026-04-27 00:18 40.71670 -74.25953 2513 ft 180 kts 54°
2026-04-27 00:19 40.72498 -74.24709 2517 ft 180 kts 48°
2026-04-27 00:19 40.73356 -74.23546 2524 ft 173 kts 47°
2026-04-27 00:19 40.74165 -74.22427 2551 ft 156 kts 49°
2026-04-27 00:19 40.74866 -74.21423 2556 ft 146 kts 50°
2026-04-27 00:20 40.75540 -74.20435 2522 ft 142 kts 50°
2026-04-27 00:20 40.76197 -74.19464 2481 ft 143 kts 51°
2026-04-27 00:20 40.76857 -74.18492 2301 ft 140 kts 51°
2026-04-27 00:20 40.77518 -74.17522 2124 ft 141 kts 51°
2026-04-27 00:21 40.78175 -74.16560 1938 ft 142 kts 51°
2026-04-27 00:21 40.78839 -74.15587 1747 ft 143 kts 51°
2026-04-27 00:21 40.79504 -74.14613 1554 ft 143 kts 51°
2026-04-27 00:21 40.80137 -74.13690 1356 ft 127 kts 51°
2026-04-27 00:22 40.80727 -74.12830 1190 ft 124 kts 51°
2026-04-27 00:22 40.81296 -74.11995 1033 ft 122 kts 51°
2026-04-27 00:22 40.81860 -74.11165 872 ft 121 kts 51°
2026-04-27 00:22 40.82418 -74.10342 719 ft 119 kts 51°
2026-04-27 00:23 40.82975 -74.09524 550 ft 118 kts 50°
2026-04-27 00:23 40.83520 -74.08721 378 ft 118 kts 51°
2026-04-27 00:23 40.84074 -74.07909 221 ft 118 kts 49°
2026-04-27 00:23 40.84637 -74.07086 68 ft 122 kts 49°
2026-04-27 00:24 40.85148 -74.06328 11 ft 94 kts 50°
2026-04-27 00:24 40.85433 -74.05908 11 ft 34 kts 49°
2026-04-27 00:24 40.85553 -74.05748 11 ft 21 kts 31°